,,Stat5,,Stat1,,Stat2,,Stat3,,Stat4,,Wind1,,Wind1,
time,status,PA1M_AVG,status,PR1M_SUM,status,RH1M_AVG,status,SR1M_AVG,status,TA1M_AVG,status,W1dAve1m,status,W1sAve1m,
2000-08-16, 00:00:00,VALID,920.706,VALID,0,VALID,99.1432,VALID,0,VALID,17.2837,VALID,87,VALID,0.357686,
2000-08-16, 00:01:00,VALID,920.702,VALID,0,VALID,99.1216,VALID,-0.0169808,VALID,17.2678,VALID,82,VALID,0.843328,
2000-08-16, 00:02:00,VALID,920.693,VALID,0,VALID,99.1203,VALID,-0.0169808,VALID,17.2579,VALID,48,VALID,0.414292,
2000-08-16, 00:03:00,VALID,920.693,VALID,0,VALID,99.0682,VALID,0,VALID,17.2381,VALID,43,VALID,0.225946,
2000-08-16, 00:04:00,VALID,920.676,VALID,0,VALID,99.0796,VALID,-0.0169808,VALID,17.2286,VALID,51,VALID,0,
2000-08-16, 00:05:00,VALID,920.667,VALID,0,VALID,99.0656,VALID,-0.0169808,VALID,17.2353,VALID,60,VALID,0,
2000-08-16, 00:06:00,VALID,920.648,VALID,0,VALID,99.1063,VALID,0.0339617,VALID,17.248,VALID,77,VALID,0.628801,
2000-08-16, 00:07:00,VALID,920.644,VALID,0,VALID,98.9817,VALID,0,VALID,17.2062,VALID,54,VALID,0.629523,
2000-08-16, 00:08:00,VALID,920.62,VALID,0.2,VALID,98.9105,VALID,0,VALID,17.2161,VALID,44,VALID,0.511068,
2000-08-16, 00:09:00,VALID,920.595,VALID,0,VALID,98.8431,VALID,0,VALID,17.2093,VALID,85,VALID,0.60663,
2000-08-16, 00:10:00,VALID,920.588,VALID,0,VALID,98.824,VALID,0,VALID,17.2093,VALID,90,VALID,0.942708,
2000-08-16, 00:11:00,VALID,920.572,VALID,0,VALID,98.8494,VALID,0,VALID,17.2551,VALID,78,VALID,0.198884,
2000-08-16, 00:12:00,VALID,920.555,VALID,0,VALID,98.8164,VALID,0,VALID,17.2316,VALID,75,VALID,0.59158,
2000-08-16, 00:13:00,VALID,920.524,VALID,0,VALID,98.7375,VALID,-0.0169808,VALID,17.2194,VALID,70,VALID,0.661058,
2000-08-16, 00:14:00,VALID,920.505,VALID,0,VALID,98.6498,VALID,0,VALID,17.2129,VALID,76,VALID,0.673828,
2000-08-16, 00:15:00,VALID,920.498,VALID,0,VALID,98.6714,VALID,0,VALID,17.2196,VALID,68,VALID,0.23273,
2000-08-16, 00:16:00,VALID,920.475,VALID,0,VALID,98.7147,VALID,0,VALID,17.2095,VALID,75,VALID,0.485026,
2000-08-16, 00:17:00,VALID,920.46,VALID,0,VALID,98.6892,VALID,0,VALID,17.1998,VALID,63,VALID,0.616319,
2000-08-16, 00:18:00,VALID,920.444,VALID,0,VALID,98.646,VALID,0,VALID,17.1869,VALID,58,VALID,0.614784,
2000-08-16, 00:19:00,VALID,920.435,VALID,0,VALID,98.6104,VALID,0,VALID,17.1612,VALID,43,VALID,0.905357,
2000-08-16, 00:20:00,VALID,920.413,VALID,0,VALID,98.5201,VALID,-0.0169808,VALID,17.1578,VALID,57,VALID,0.598395,
2000-08-16, 00:21:00,VALID,920.398,VALID,0,VALID,98.5099,VALID,0,VALID,17.161,VALID,63,VALID,0.488616,
2000-08-16, 00:22:00,VALID,920.388,VALID,0,VALID,98.5277,VALID,-0.0169808,VALID,17.1546,VALID,58,VALID,0.958767,
2000-08-16, 00:23:00,VALID,920.386,VALID,0,VALID,98.454,VALID,0,VALID,17.1447,VALID,37,VALID,0.764623,
2000-08-16, 00:24:00,VALID,920.37,VALID,0,VALID,98.4044,VALID,-0.0509425,VALID,17.1384,VALID,35,VALID,0.790848,
2000-08-16, 00:25:00,VALID,920.362,VALID,0,VALID,98.3853,VALID,-0.0169808,VALID,17.1679,VALID,46,VALID,0.810389,
2000-08-16, 00:26:00,VALID,920.34,VALID,0,VALID,98.3561,VALID,-0.0169808,VALID,17.1447,VALID,58,VALID,0.532589,
2000-08-16, 00:27:00,VALID,920.327,VALID,0,VALID,98.3993,VALID,0,VALID,17.1417,VALID,58,VALID,0.564236,
2000-08-16, 00:28:00,VALID,920.282,VALID,0,VALID,98.4616,VALID,-0.0169808,VALID,17.1552,VALID,98,VALID,0.711372,
2000-08-16, 00:29:00,VALID,920.261,VALID,0,VALID,98.4464,VALID,-0.0509425,VALID,17.1393,VALID,36,VALID,0.565755,
2000-08-16, 00:30:00,VALID,920.228,VALID,0,VALID,98.4222,VALID,-0.0509425,VALID,17.1331,VALID,63,VALID,0.536801,
2000-08-16, 00:31:00,VALID,920.218,VALID,0,VALID,98.3586,VALID,-0.0339617,VALID,17.1229,VALID,63,VALID,0.656684,
2000-08-16, 00:32:00,VALID,920.201,VALID,0,VALID,98.2671,VALID,-0.0679233,VALID,17.1003,VALID,40,VALID,0.338325,
2000-08-16, 00:33:00,VALID,920.176,VALID,0,VALID,98.2111,VALID,-0.0339617,VALID,17.0969,VALID,74,VALID,0.695313,
2000-08-16, 00:34:00,VALID,920.163,VALID,0,VALID,98.2365,VALID,-0.0169808,VALID,17.11,VALID,46,VALID,0.407813,
2000-08-16, 00:35:00,VALID,920.164,VALID,0,VALID,98.2098,VALID,-0.0679233,VALID,17.1104,VALID,42,VALID,0.330236,
2000-08-16, 00:36:00,VALID,920.159,VALID,0,VALID,98.2429,VALID,-0.0849042,VALID,17.1165,VALID,53,VALID,0.491741,
2000-08-16, 00:37:00,VALID,920.154,VALID,0,VALID,98.1564,VALID,-0.0169808,VALID,17.1203,VALID,358,VALID,0.335069,
2000-08-16, 00:38:00,VALID,920.153,VALID,0,VALID,98.089,VALID,-0.0339617,VALID,17.1137,VALID,61,VALID,0.438101,
2000-08-16, 00:39:00,VALID,920.151,VALID,0,VALID,98.075,VALID,-0.0679233,VALID,17.1135,VALID,81,VALID,0.677455,
2000-08-16, 00:40:00,VALID,920.132,VALID,0,VALID,98.1145,VALID,-0.0679233,VALID,17.1169,VALID,90,VALID,0.255701,
2000-08-16, 00:41:00,VALID,920.116,VALID,0,VALID,98.1857,VALID,-0.0679233,VALID,17.1201,VALID,47,VALID,0.188839,
2000-08-16, 00:42:00,VALID,920.107,VALID,0,VALID,97.9441,VALID,-0.0679233,VALID,17.101,VALID,341,VALID,0.327908,
2000-08-16, 00:43:00,VALID,920.095,VALID,0,VALID,97.9034,VALID,0.0339617,VALID,17.1191,VALID,321,VALID,0.0210503,
2000-08-16, 00:44:00,VALID,920.081,VALID,0,VALID,98.0115,VALID,0.0339617,VALID,17.1283,VALID,5,VALID,0,
2000-08-16, 00:45:00,VALID,920.056,VALID,0,VALID,98.014,VALID,0.0339617,VALID,17.1126,VALID,10,VALID,0.000411184,
2000-08-16, 00:46:00,VALID,920.027,VALID,0,VALID,97.8589,VALID,0,VALID,17.087,VALID,55,VALID,0.681207,
2000-08-16, 00:47:00,VALID,919.996,VALID,0,VALID,97.8576,VALID,0.0509425,VALID,17.0831,VALID,81,VALID,0.844835,
2000-08-16, 00:48:00,VALID,919.982,VALID,0,VALID,97.9593,VALID,0,VALID,17.1064,VALID,75,VALID,1.14103,
2000-08-16, 00:49:00,VALID,919.96,VALID,0,VALID,97.9263,VALID,0.0339617,VALID,17.0902,VALID,74,VALID,1.10067,
2000-08-16, 00:50:00,VALID,919.933,VALID,0,VALID,98.0242,VALID,0,VALID,17.0805,VALID,82,VALID,0.774071,
2000-08-16, 00:51:00,VALID,919.917,VALID,0,VALID,97.9835,VALID,0,VALID,17.0543,VALID,69,VALID,0.928348,
2000-08-16, 00:52:00,VALID,919.9,VALID,0,VALID,97.9008,VALID,0.0169808,VALID,17.0482,VALID,55,VALID,0.932075,
2000-08-16, 00:53:00,VALID,919.873,VALID,0,VALID,97.8309,VALID,0,VALID,17.0609,VALID,63,VALID,0.507612,
2000-08-16, 00:54:00,VALID,919.863,VALID,0,VALID,97.7126,VALID,0,VALID,17.0612,VALID,44,VALID,1.11786,
2000-08-16, 00:55:00,VALID,919.839,VALID,0,VALID,97.5575,VALID,0,VALID,17.0739,VALID,47,VALID,1.03906,
2000-08-16, 00:56:00,VALID,919.822,VALID,0,VALID,97.5791,VALID,0.0169808,VALID,17.0969,VALID,45,VALID,0.896875,
2000-08-16, 00:57:00,VALID,919.806,VALID,0,VALID,97.588,VALID,0.0339617,VALID,17.0734,VALID,36,VALID,1.023,
2000-08-16, 00:58:00,VALID,919.785,VALID,0,VALID,97.5906,VALID,0.0509425,VALID,17.0708,VALID,49,VALID,0.998698,
2000-08-16, 00:59:00,VALID,919.791,VALID,0,VALID,97.6681,VALID,0,VALID,17.0805,VALID,84,VALID,0.861328,
2000-08-16, 01:00:00,VALID,919.767,VALID,0,VALID,97.7864,VALID,0,VALID,17.0874,VALID,61,VALID,1.1322,
2000-08-16, 01:01:00,VALID,919.753,VALID,0,VALID,97.6694,VALID,0.0169808,VALID,17.0513,VALID,71,VALID,1.0918,
2000-08-16, 01:02:00,VALID,919.738,VALID,0,VALID,97.7622,VALID,0.0339617,VALID,17.0771,VALID,76,VALID,0.897786,
2000-08-16, 01:03:00,VALID,919.718,VALID,0,VALID,97.8067,VALID,0.0339617,VALID,17.0644,VALID,73,VALID,0.764423,
2000-08-16, 01:04:00,VALID,919.706,VALID,0,VALID,97.8525,VALID,0.0169808,VALID,17.0581,VALID,66,VALID,0.854464,
2000-08-16, 01:05:00,VALID,919.696,VALID,0,VALID,97.8741,VALID,0,VALID,17.0517,VALID,62,VALID,1.0758,
2000-08-16, 01:06:00,VALID,919.665,VALID,0,VALID,97.9364,VALID,0.0339617,VALID,17.0547,VALID,82,VALID,0.947768,
2000-08-16, 01:07:00,VALID,919.649,VALID,0,VALID,97.9949,VALID,0.0169808,VALID,17.0676,VALID,80,VALID,1.06597,
2000-08-16, 01:08:00,VALID,919.639,VALID,0,VALID,98.0115,VALID,0.0169808,VALID,17.0708,VALID,74,VALID,0.898037,
2000-08-16, 01:09:00,VALID,919.619,VALID,0,VALID,97.8627,VALID,0,VALID,17.0351,VALID,34,VALID,0.828571,
2000-08-16, 01:10:00,VALID,919.604,VALID,0,VALID,97.85,VALID,0.0339617,VALID,17.0319,VALID,54,VALID,1.3391,
2000-08-16, 01:11:00,VALID,919.578,VALID,0,VALID,97.8067,VALID,0.0169808,VALID,17.0424,VALID,14,VALID,0.716071,
2000-08-16, 01:12:00,VALID,919.573,VALID,0,VALID,97.8284,VALID,0,VALID,17.0254,VALID,58,VALID,0.63151,
2000-08-16, 01:13:00,VALID,919.551,VALID,0,VALID,97.7749,VALID,0.0339617,VALID,17.0254,VALID,54,VALID,0.473741,
2000-08-16, 01:14:00,VALID,919.544,VALID,0,VALID,97.7915,VALID,0.0339617,VALID,17.0388,VALID,80,VALID,0.335069,
2000-08-16, 01:15:00,VALID,919.514,VALID,0,VALID,97.8004,VALID,0.0339617,VALID,17.0256,VALID,83,VALID,0.225535,
2000-08-16, 01:16:00,VALID,919.496,VALID,0,VALID,97.7584,VALID,0.0169808,VALID,17.0032,VALID,39,VALID,0.650174,
2000-08-16, 01:17:00,VALID,919.484,VALID,0,VALID,97.5028,VALID,0.0339617,VALID,16.9804,VALID,37,VALID,1.17209,
2000-08-16, 01:18:00,VALID,919.458,VALID,0,VALID,97.1519,VALID,0.0339617,VALID,17.0224,VALID,9,VALID,0.665465,
2000-08-16, 01:19:00,VALID,919.445,VALID,0,VALID,97.0272,VALID,0.0339617,VALID,17.042,VALID,3,VALID,0.194643,
2000-08-16, 01:20:00,VALID,919.429,VALID,0,VALID,97.0489,VALID,0.0169808,VALID,17.0351,VALID,358,VALID,0.0878378,
2000-08-16, 01:21:00,VALID,919.419,VALID,0,VALID,97.2739,VALID,0.0169808,VALID,17.0485,VALID,358,VALID,0.0125,
2000-08-16, 01:22:00,VALID,919.414,VALID,0,VALID,97.3909,VALID,0,VALID,17.0321,VALID,6,VALID,0.193359,
2000-08-16, 01:23:00,VALID,919.397,VALID,0,VALID,97.2536,VALID,0,VALID,17.0131,VALID,55,VALID,0.504207,
2000-08-16, 01:24:00,VALID,919.372,VALID,0,VALID,97.2472,VALID,0.0169808,VALID,17.0159,VALID,81,VALID,0.662723,
2000-08-16, 01:25:00,VALID,919.347,VALID,0,VALID,97.3795,VALID,0.0169808,VALID,17.0388,VALID,85,VALID,0.196579,
2000-08-16, 01:26:00,VALID,919.335,VALID,0,VALID,97.4532,VALID,0.0509425,VALID,17.0422,VALID,95,VALID,0.210491,
2000-08-16, 01:27:00,VALID,919.327,VALID,0,VALID,97.4685,VALID,0.0169808,VALID,17.0357,VALID,89,VALID,0.145616,
2000-08-16, 01:28:00,VALID,919.314,VALID,0,VALID,97.4342,VALID,-0.0679233,VALID,17.0239,VALID,81,VALID,0.338976,
2000-08-16, 01:29:00,VALID,919.297,VALID,0,VALID,97.1468,VALID,-0.101885,VALID,16.9983,VALID,62,VALID,0.532552,
2000-08-16, 01:30:00,VALID,919.289,VALID,0,VALID,96.9637,VALID,-0.0339617,VALID,17.0075,VALID,43,VALID,0.721423,
2000-08-16, 01:31:00,VALID,919.28,VALID,0,VALID,96.984,VALID,-0.101885,VALID,17.0108,VALID,52,VALID,0.459852,
2000-08-16, 01:32:00,VALID,919.288,VALID,0,VALID,97.0031,VALID,-0.0679233,VALID,16.9783,VALID,40,VALID,0.623264,
2000-08-16, 01:33:00,VALID,919.279,VALID,0,VALID,96.853,VALID,-0.118866,VALID,16.9593,VALID,56,VALID,1.05409,
2000-08-16, 01:34:00,VALID,919.278,VALID,0,VALID,96.675,VALID,-0.101885,VALID,16.9561,VALID,74,VALID,0.610714,
2000-08-16, 01:35:00,VALID,919.269,VALID,0,VALID,96.7627,VALID,-0.0679233,VALID,16.9686,VALID,76,VALID,0.690245,
2000-08-16, 01:36:00,VALID,919.258,VALID,0,VALID,96.7017,VALID,-0.0849042,VALID,16.9591,VALID,49,VALID,0.433929,
2000-08-16, 01:37:00,VALID,919.263,VALID,0,VALID,96.6191,VALID,-0.0339617,VALID,16.9305,VALID,38,VALID,0.563802,
2000-08-16, 01:38:00,VALID,919.249,VALID,0,VALID,96.5033,VALID,-0.0849042,VALID,16.9109,VALID,13,VALID,0.906851,
2000-08-16, 01:39:00,VALID,919.232,VALID,0,VALID,96.4614,VALID,-0.0849042,VALID,16.9277,VALID,2,VALID,0.686607,
2000-08-16, 01:40:00,VALID,919.221,VALID,0,VALID,96.3647,VALID,-0.0679233,VALID,16.9141,VALID,33,VALID,0.596495,
2000-08-16, 01:41:00,VALID,919.221,VALID,0,VALID,96.2694,VALID,-0.101885,VALID,16.9204,VALID,26,VALID,0.791071,
2000-08-16, 01:42:00,VALID,919.212,VALID,0,VALID,96.221,VALID,-0.0509425,VALID,16.93,VALID,22,VALID,0.707899,
2000-08-16, 01:43:00,VALID,919.204,VALID,0,VALID,96.5695,VALID,-0.0509425,VALID,16.9365,VALID,25,VALID,0.606554,
2000-08-16, 01:44:00,VALID,918.77,VALID,0,VALID,96.9103,VALID,-0.0339617,VALID,16.9208,VALID,44,VALID,0.380642,
2000-08-16, 01:45:00,VALID,919.186,VALID,0,VALID,97.1773,VALID,-0.0679233,VALID,16.9077,VALID,50,VALID,0.218339,
2000-08-16, 01:46:00,VALID,919.189,VALID,0,VALID,97.4151,VALID,-0.101885,VALID,16.9014,VALID,47,VALID,0.225694,
2000-08-16, 01:47:00,VALID,919.169,VALID,0,VALID,97.6046,VALID,-0.0849042,VALID,16.8917,VALID,33,VALID,0,
2000-08-16, 01:48:00,VALID,919.162,VALID,0,VALID,97.7915,VALID,-0.0849042,VALID,16.8786,VALID,42,VALID,0.43109,
2000-08-16, 01:49:00,VALID,919.153,VALID,0,VALID,97.8881,VALID,-0.0679233,VALID,16.8655,VALID,3,VALID,0.0609375,
2000-08-16, 01:50:00,VALID,919.146,VALID,0,VALID,97.5995,VALID,-0.0679233,VALID,16.8332,VALID,20,VALID,0.524282,
2000-08-16, 01:51:00,VALID,919.125,VALID,0,VALID,97.7279,VALID,-0.0849042,VALID,16.8784,VALID,336,VALID,0.0446429,
2000-08-16, 01:52:00,VALID,919.109,VALID,0,VALID,97.8868,VALID,-0.101885,VALID,16.8853,VALID,326,VALID,0,
2000-08-16, 01:53:00,VALID,919.08,VALID,0,VALID,98.0318,VALID,-0.0339617,VALID,16.898,VALID,321,VALID,0,
2000-08-16, 01:54:00,VALID,919.041,VALID,0,VALID,98.2035,VALID,-0.0849042,VALID,16.9079,VALID,310,VALID,0.0924107,
2000-08-16, 01:55:00,VALID,919.025,VALID,0,VALID,98.3472,VALID,-0.0849042,VALID,16.9145,VALID,302,VALID,0.0945946,
2000-08-16, 01:56:00,VALID,918.999,VALID,0,VALID,98.4705,VALID,-0.0849042,VALID,16.9143,VALID,302,VALID,0.234598,
2000-08-16, 01:57:00,VALID,918.98,VALID,0,VALID,98.5837,VALID,-0.0849042,VALID,16.9044,VALID,302,VALID,0.063151,
2000-08-16, 01:58:00,VALID,918.939,VALID,0,VALID,98.6702,VALID,-0.0849042,VALID,16.8978,VALID,314,VALID,0,
2000-08-16, 01:59:00,VALID,918.903,VALID,0,VALID,98.0979,VALID,-0.0849042,VALID,16.8142,VALID,29,VALID,0.691623,
2000-08-16, 02:00:00,VALID,918.877,VALID,0,VALID,96.8785,VALID,-0.0849042,VALID,16.8855,VALID,56,VALID,0.685855,
2000-08-16, 02:01:00,VALID,918.847,VALID,0,VALID,96.7564,VALID,-0.0849042,VALID,16.9371,VALID,90,VALID,0.541233,
2000-08-16, 02:02:00,VALID,918.812,VALID,0,VALID,96.9268,VALID,-0.0849042,VALID,16.9402,VALID,95,VALID,0.431424,
2000-08-16, 02:03:00,VALID,918.784,VALID,0,VALID,97.0056,VALID,-0.0679233,VALID,16.9399,VALID,88,VALID,0.578926,
2000-08-16, 02:04:00,VALID,918.784,VALID,0.2,VALID,97.0056,VALID,-0.0849042,VALID,16.9374,VALID,103,VALID,0.320982,
2000-08-16, 02:05:00,VALID,918.768,VALID,0,VALID,97.0336,VALID,-0.0679233,VALID,16.9307,VALID,102,VALID,0.340583,
2000-08-16, 02:06:00,VALID,918.748,VALID,0,VALID,96.6254,VALID,-0.0849042,VALID,16.898,VALID,93,VALID,0.841741,
2000-08-16, 02:07:00,VALID,918.73,VALID,0,VALID,95.5039,VALID,-0.0849042,VALID,16.9079,VALID,101,VALID,0.738064,
2000-08-16, 02:08:00,VALID,918.717,VALID,0,VALID,95.5039,VALID,-0.0849042,VALID,16.9206,VALID,113,VALID,0.545873,
2000-08-16, 02:09:00,VALID,918.698,VALID,0,VALID,95.4187,VALID,-0.0509425,VALID,16.927,VALID,112,VALID,0.702232,
2000-08-16, 02:10:00,VALID,918.695,VALID,0,VALID,95.4263,VALID,-0.101885,VALID,16.9206,VALID,119,VALID,0.577492,
2000-08-16, 02:11:00,VALID,918.688,VALID,0,VALID,95.4683,VALID,-0.0509425,VALID,16.9208,VALID,134,VALID,0.607813,
2000-08-16, 02:12:00,VALID,918.675,VALID,0,VALID,95.1567,VALID,-0.0509425,VALID,16.8945,VALID,152,VALID,0.634766,
2000-08-16, 02:13:00,VALID,918.662,VALID,0,VALID,95.0728,VALID,0.0849042,VALID,16.8666,VALID,155,VALID,0.631076,
2000-08-16, 02:14:00,VALID,918.653,VALID,0,VALID,95.0601,VALID,0.118866,VALID,16.8567,VALID,150,VALID,0.650391,
2000-08-16, 02:15:00,VALID,918.633,VALID,0,VALID,95.3475,VALID,0.152827,VALID,16.8436,VALID,134,VALID,0.811678,
2000-08-16, 02:16:00,VALID,918.627,VALID,0,VALID,95.8345,VALID,0.135847,VALID,16.844,VALID,123,VALID,0.9375,
2000-08-16, 02:17:00,VALID,918.625,VALID,0,VALID,96.3202,VALID,0.118866,VALID,16.8407,VALID,114,VALID,0.994141,
2000-08-16, 02:18:00,VALID,918.623,VALID,0,VALID,96.4957,VALID,0.101885,VALID,16.7828,VALID,110,VALID,1.03606,
2000-08-16, 02:19:00,VALID,918.631,VALID,0,VALID,96.6241,VALID,0.118866,VALID,16.7374,VALID,104,VALID,0.983036,
2000-08-16, 02:20:00,VALID,918.635,VALID,0,VALID,96.6559,VALID,0.101885,VALID,16.6985,VALID,104,VALID,0.800887,
2000-08-16, 02:21:00,VALID,918.615,VALID,0,VALID,96.5784,VALID,0.101885,VALID,16.6731,VALID,102,VALID,0.765848,
2000-08-16, 02:22:00,VALID,918.597,VALID,0,VALID,96.4461,VALID,0.101885,VALID,16.6632,VALID,91,VALID,0.842014,
2000-08-16, 02:23:00,VALID,918.571,VALID,0,VALID,96.5835,VALID,0.101885,VALID,16.6724,VALID,85,VALID,0.810697,
2000-08-16, 02:24:00,VALID,918.544,VALID,0,VALID,96.1969,VALID,0.118866,VALID,16.6668,VALID,82,VALID,0.940402,
2000-08-16, 02:25:01,VALID,918.515,VALID,0,VALID,95.7938,VALID,0.118866,VALID,16.6759,VALID,93,VALID,1.10663,
2000-08-16, 02:26:00,VALID,918.508,VALID,0,VALID,95.8383,VALID,0.135847,VALID,16.7056,VALID,94,VALID,1.01942,
2000-08-16, 02:27:00,VALID,918.5,VALID,0,VALID,95.9794,VALID,0.0849042,VALID,16.7086,VALID,100,VALID,0.910156,
2000-08-16, 02:28:00,VALID,918.481,VALID,0,VALID,96.4003,VALID,0.0169808,VALID,16.7032,VALID,97,VALID,0.702257,
2000-08-16, 02:29:00,VALID,918.465,VALID,0,VALID,96.6979,VALID,0.0169808,VALID,16.6971,VALID,94,VALID,0.802517,
2000-08-16, 02:30:00,VALID,918.467,VALID,0,VALID,96.5618,VALID,0,VALID,16.6743,VALID,92,VALID,1.14391,
2000-08-16, 02:31:00,VALID,918.454,VALID,0,VALID,96.5339,VALID,0,VALID,16.6582,VALID,88,VALID,1.23177,
2000-08-16, 02:32:00,VALID,918.449,VALID,0,VALID,96.5962,VALID,0,VALID,16.6449,VALID,89,VALID,0.991536,
2000-08-16, 02:33:00,VALID,918.464,VALID,0,VALID,96.5949,VALID,0.0169808,VALID,16.6451,VALID,93,VALID,0.586338,
2000-08-16, 02:34:00,VALID,918.451,VALID,0,VALID,96.6241,VALID,0,VALID,16.642,VALID,96,VALID,0.595759,
2000-08-16, 02:35:00,VALID,918.459,VALID,0,VALID,96.6267,VALID,0,VALID,16.6257,VALID,87,VALID,0.558488,
2000-08-16, 02:36:00,VALID,918.453,VALID,0,VALID,96.4563,VALID,0.0169808,VALID,16.616,VALID,87,VALID,0.68192,
2000-08-16, 02:37:00,VALID,918.446,VALID,0,VALID,96.4398,VALID,0,VALID,16.6192,VALID,100,VALID,0.420186,
2000-08-16, 02:38:00,VALID,918.45,VALID,0,VALID,96.5237,VALID,0.0509425,VALID,16.6124,VALID,91,VALID,0.613582,
2000-08-16, 02:39:00,VALID,918.42,VALID,0,VALID,96.4538,VALID,0.0509425,VALID,16.6059,VALID,99,VALID,0.621652,
2000-08-16, 02:40:01,VALID,918.416,VALID,0,VALID,96.5567,VALID,0,VALID,16.6128,VALID,101,VALID,0.625211,
2000-08-16, 02:41:00,VALID,918.393,VALID,0,VALID,96.7068,VALID,0.0169808,VALID,16.5997,VALID,118,VALID,0.801339,
2000-08-16, 02:42:00,VALID,918.39,VALID,0,VALID,96.6763,VALID,0.0169808,VALID,16.6164,VALID,122,VALID,0.687283,
2000-08-16, 02:43:00,VALID,918.366,VALID,0,VALID,96.6407,VALID,-0.0509425,VALID,16.6142,VALID,93,VALID,0.88151,
2000-08-16, 02:44:00,VALID,918.358,VALID,0,VALID,96.4283,VALID,-0.0849042,VALID,16.6076,VALID,115,VALID,0.804253,
2000-08-16, 02:45:00,VALID,918.335,VALID,0,VALID,95.9845,VALID,-0.0849042,VALID,16.6011,VALID,102,VALID,0.971012,
2000-08-16, 02:46:00,VALID,918.297,VALID,0,VALID,95.6959,VALID,-0.0849042,VALID,16.6207,VALID,102,VALID,0.490668,
2000-08-16, 02:47:01,VALID,918.294,VALID,0,VALID,95.57,VALID,-0.101885,VALID,16.6239,VALID,109,VALID,0.24349,
2000-08-16, 02:48:00,VALID,918.273,VALID,0,VALID,95.5776,VALID,-0.101885,VALID,16.6274,VALID,122,VALID,0,
2000-08-16, 02:49:00,VALID,918.262,VALID,0,VALID,95.0995,VALID,-0.101885,VALID,16.611,VALID,139,VALID,0.207589,
2000-08-16, 02:50:00,VALID,918.241,VALID,0,VALID,94.7218,VALID,-0.101885,VALID,16.6304,VALID,124,VALID,0.640414,
2000-08-16, 02:51:00,VALID,918.235,VALID,0,VALID,94.7485,VALID,-0.0849042,VALID,16.6502,VALID,142,VALID,0.406696,
2000-08-16, 02:52:00,VALID,918.234,VALID,0,VALID,95.1059,VALID,-0.0849042,VALID,16.6661,VALID,125,VALID,0.127821,
2000-08-16, 02:53:00,VALID,918.236,VALID,0,VALID,95.1338,VALID,-0.101885,VALID,16.6693,VALID,125,VALID,0,
2000-08-16, 02:54:00,VALID,918.225,VALID,0,VALID,95.0804,VALID,-0.0679233,VALID,16.6564,VALID,125,VALID,0,
2000-08-16, 02:55:01,VALID,918.226,VALID,0,VALID,95.1376,VALID,-0.101885,VALID,16.6564,VALID,125,VALID,0,
2000-08-16, 02:56:00,VALID,918.222,VALID,0,VALID,95.2406,VALID,-0.118866,VALID,16.6498,VALID,125,VALID,0,
2000-08-16, 02:57:00,VALID,918.214,VALID,0,VALID,95.3894,VALID,-0.101885,VALID,16.6595,VALID,125,VALID,0,
2000-08-16, 02:58:00,VALID,918.198,VALID,0,VALID,95.5827,VALID,0,VALID,16.6487,VALID,125,VALID,0,
2000-08-16, 02:59:00,VALID,918.186,VALID,0,VALID,95.8612,VALID,0,VALID,16.6326,VALID,123,VALID,0,
2000-08-16, 03:00:00,VALID,918.176,VALID,0,VALID,96.2783,VALID,0.0169808,VALID,16.6132,VALID,103,VALID,0.0207648,
2000-08-16, 03:01:00,VALID,918.164,VALID,0,VALID,95.8561,VALID,0.0169808,VALID,16.5648,VALID,91,VALID,0.628689,
2000-08-16, 03:02:01,VALID,918.148,VALID,0,VALID,95.687,VALID,0.0339617,VALID,16.5389,VALID,93,VALID,0.426432,
2000-08-16, 03:03:01,VALID,918.138,VALID,0,VALID,95.9527,VALID,0.0509425,VALID,16.5321,VALID,87,VALID,0.519431,
2000-08-16, 03:04:00,VALID,918.122,VALID,0,VALID,96.2236,VALID,0,VALID,16.5099,VALID,104,VALID,0.519196,
2000-08-16, 03:05:00,VALID,918.099,VALID,0,VALID,96.3889,VALID,0,VALID,16.4972,VALID,100,VALID,0.769003,
2000-08-16, 03:06:00,VALID,918.083,VALID,0,VALID,96.6369,VALID,0,VALID,16.4843,VALID,100,VALID,0.732589,
2000-08-16, 03:07:01,VALID,918.044,VALID,0,VALID,96.6966,VALID,0.0169808,VALID,16.4481,VALID,85,VALID,0.927517,
2000-08-16, 03:08:00,VALID,918.031,VALID,0,VALID,96.5898,VALID,0,VALID,16.4389,VALID,66,VALID,0.796875,
2000-08-16, 03:09:01,VALID,918,VALID,0,VALID,96.483,VALID,0,VALID,16.4227,VALID,59,VALID,0.521429,
2000-08-16, 03:10:01,VALID,917.983,VALID,0,VALID,96.3838,VALID,0.0509425,VALID,16.4064,VALID,77,VALID,0.275127,
2000-08-16, 03:11:01,VALID,917.946,VALID,0,VALID,96.3902,VALID,-0.0169808,VALID,16.413,VALID,44,VALID,0.197991,
2000-08-16, 03:12:00,VALID,917.921,VALID,0,VALID,96.2732,VALID,0.0169808,VALID,16.3969,VALID,15,VALID,0.149089,
2000-08-16, 03:13:01,VALID,917.885,VALID,0,VALID,96.2935,VALID,0,VALID,16.3807,VALID,268,VALID,0.0392795,
2000-08-16, 03:14:00,VALID,917.882,VALID,0,VALID,96.5161,VALID,0.0169808,VALID,16.3973,VALID,278,VALID,0,
2000-08-16, 03:15:00,VALID,917.872,VALID,0,VALID,96.7246,VALID,0.0509425,VALID,16.3904,VALID,288,VALID,0,
2000-08-16, 03:16:00,VALID,917.894,VALID,0,VALID,96.895,VALID,0.0169808,VALID,16.3838,VALID,288,VALID,0,
2000-08-16, 03:17:01,VALID,917.88,VALID,0,VALID,97.0616,VALID,0.0169808,VALID,16.3906,VALID,185,VALID,0.205295,
2000-08-16, 03:18:00,VALID,917.887,VALID,0,VALID,97.1926,VALID,0,VALID,16.3904,VALID,140,VALID,0.391226,
2000-08-16, 03:19:00,VALID,917.879,VALID,0,VALID,97.2447,VALID,0,VALID,16.381,VALID,128,VALID,0.485268,
2000-08-16, 03:20:00,VALID,917.871,VALID,0,VALID,97.3172,VALID,0,VALID,16.3779,VALID,127,VALID,0.477407,
2000-08-16, 03:21:00,VALID,917.85,VALID,0,VALID,97.2612,VALID,0.0169808,VALID,16.3616,VALID,141,VALID,0.694196,
2000-08-16, 03:22:00,VALID,917.845,VALID,0,VALID,97.1061,VALID,0.0169808,VALID,16.3579,VALID,161,VALID,0.849609,
2000-08-16, 03:23:00,VALID,917.816,VALID,0,VALID,96.9738,VALID,0,VALID,16.3555,VALID,175,VALID,0.91226,
2000-08-16, 03:24:00,VALID,917.788,VALID,0,VALID,97.0425,VALID,-0.0169808,VALID,16.3491,VALID,201,VALID,0.844643,
2000-08-16, 03:25:01,VALID,917.769,VALID,0,VALID,97.2561,VALID,0,VALID,16.3489,VALID,196,VALID,0.524071,
2000-08-16, 03:26:00,VALID,917.766,VALID,0,VALID,97.4927,VALID,0,VALID,16.3618,VALID,222,VALID,0.841071,
2000-08-16, 03:27:00,VALID,917.771,VALID,0,VALID,97.6567,VALID,0,VALID,16.365,VALID,223,VALID,0.936198,
2000-08-16, 03:28:00,VALID,917.753,VALID,0,VALID,97.7559,VALID,-0.0679233,VALID,16.3628,VALID,219,VALID,0.883464,
2000-08-16, 03:29:00,VALID,917.742,VALID,0,VALID,97.836,VALID,-0.0679233,VALID,16.3693,VALID,225,VALID,0.807292,
2000-08-16, 03:30:00,VALID,917.724,VALID,0,VALID,97.9072,VALID,-0.0849042,VALID,16.3757,VALID,225,VALID,0.801192,
2000-08-16, 03:31:00,VALID,917.707,VALID,0,VALID,97.9339,VALID,-0.0849042,VALID,16.3953,VALID,222,VALID,0.679688,
2000-08-16, 03:32:01,VALID,917.694,VALID,0,VALID,97.9606,VALID,-0.0679233,VALID,16.3854,VALID,225,VALID,0.560981,
2000-08-16, 03:33:01,VALID,917.672,VALID,0,VALID,98.0255,VALID,-0.0849042,VALID,16.3985,VALID,222,VALID,0.586939,
2000-08-16, 03:34:00,VALID,917.647,VALID,0,VALID,98.159,VALID,-0.0849042,VALID,16.4113,VALID,222,VALID,0.650223,